weather.gov     
National Weather Service

Regional Weather Roundup
NWS Homepage
This page is being discontinued on March 12, 2014.
The same data is available at this site. Please update your bookmarks.
Thank you, and we apologize for the inconvenience.
Please send an email to SR-SRH.Webmaster@noaa.gov with any concerns.


Current Version
Previous Version:    01  02  03  04  05  06  07  08  09  10  11  12  13  14  15  16  17  18  19  20  21  22  23  24  25  26  27  28  29  30  
   31  32  33  34  35  36  37  38  39  40  41  42  43  44  45  46  47  48  49  50  51  52  53  54  55  56  57  58  59  60  
[Printable]
089
ASUS44 KOHX 230110
RWROHX
MIDDLE TENNESSEE HOURLY WEATHER ROUNDUP
NATIONAL WEATHER SERVICE NASHVILLE TN
700 PM CST SAT NOV 22 2014

NOTE: "FAIR" INDICATES FEW OR NO CLOUDS BELOW 12,000 FEET WITH
NO SIGNIFICANT WEATHER AND/OR OBSTRUCTIONS TO VISIBILITY.

* THESE REPORTS ARE NOT UNDER NWS QUALITY CONTROL AND MAY NOT
  REPORT WEATHER SUCH AS PRECIPITATION AND FOG.


TNZ005>011-023>034-057-059-062>066-078-080-230200
...NORTHERN MIDDLE TENNESSEE...

CITY           SKY/WX    TMP DP  RH WIND       PRES   REMARKS
CLARKSVILLE    PTCLDY    58  33  39 S5        30.09S
CROSSVILLE     MOCLDY    53  33  46 S9G21     30.17F
GALLATIN         N/A     55  41  59 CALM      30.13F
DICKSON        PTCLDY    57  37  47 S7        30.09S
LEBANON        CLOUDY    57  40  53 S9        30.11F
LIVINGSTON     MOCLDY    66  31  27 S6        30.15
NASHVILLE      MOCLDY    58  41  53 S9        30.13R
WEST NASHVILLE   N/A     57  37  47 SE6       30.11F
PORTLAND         N/A     55  37  50 S9        30.10F
SMYRNA         MOCLDY    57  43  59 S6        30.14S
SPARTA         CLEAR     54  34  47 S7        30.15S
$$
TNZ056-058-060-061-075>077-079-093>097-230200
...SOUTHERN MIDDLE TENNESSEE...

CITY           SKY/WX    TMP DP  RH WIND       PRES   REMARKS
COLUMBIA       CLEAR     57  43  58 SE5       30.09F
LEWISBURG      MOCLDY    55  40  57 S5        30.12F
MCMINNVILLE    CLEAR     54  37  54 CALM      30.15F
SHELBYVILLE    CLEAR     55  41  58 SE7       30.15S
TULLAHOMA      CLEAR     54  34  47 SE8       30.15F
WINCHESTER     CLEAR     54  34  47 SE13      30.16F
$$


...KEY TO REMARKS...
VSB - VISIBILITY IN MILES
WCI - WIND CHILL INDEX
HX  - HEAT INDEX





U.S. Dept. of Commerce
NOAA National Weather Service
1325 East West Highway
Silver Spring, MD 20910
E-mail: w-nws.webmaster@noaa.gov
Page last modified: May 16, 2007
NATIONAL WEATHER SERVICE: for Safety, for Work, for Fun - FOR LIFE